sat.trackr.live / text

‹ back to catalog

ISS (UNITY)

NORAD 25575 · 1998-069F

PAYLOAD ACTIVE UNKNOWN

§ Identity

Operator
Country
ISS
Launch date
1998-12-04
Launch site
AFETR
Launch vehicle
Mass (kg)
RCS (m²)

External: N2YO · Heavens-Above · Gunter

§ Orbital elements

Epoch: 2026-09-10T03:26:38.577120Z

Period
92.96 min
Inclination
51.6301°
Eccentricity
0.0004991
Mean motion
15.49065630 rev/d
Perigee alt
416.1 km
Apogee alt
422.9 km
Semi-major
6,797.6 km
B*
1.0337e-4
RAAN
239.6211°
Arg perigee
124.3002°
Mean anomaly
235.8459°
Rev number
58,561

§ Raw data

ISS (UNITY)1 25575U 98069F   26253.14350205  .00005262  00000+0  10337-3 0  99952 25575  51.6301 239.6211 0004991 124.3002 235.8459 15.49065630585611

JSON: /api/v1/satellites/25575 · /tle

For live sub-satellite position, see the globe view (requires WebGL).

§ Visibility from observer

Set your observer location to see the next 7 days of passes ≥ 10°. The values pass through the URL so the page stays shareable.

No JS? Fill the form by hand. The geolocation button needs JavaScript.